Alexandria, MN

12:28 AM CDT on October 17, 2017 (GMT -0500)
Chandler

Weather History for KAXN - April, 2013

Change the Weather History Date:

Wednesday, April 10, 2013

  Actual Average Record
Temperature  
Mean Temperature 32 °F -  
Max Temperature 37 °F 51 °F 85 °F (1977)
Min Temperature 28 °F 30 °F 12 °F (1962)
Degree Days  
Heating Degree Days 32    
Moisture  
Dew Point 17 °F    
Average Humidity 53    
Maximum Humidity 64    
Minimum Humidity 41    
Precipitation  
Precipitation 0.00 in - - ()
Sea Level Pressure  
Sea Level Pressure 30.13 in    
Wind  
Wind Speed 14 mph (NE)    
Max Wind Speed 17 mph    
Max Gust Speed 26 mph    
Visibility 10 miles    
Events      
Averages and records for this station are not official NWS values.
T = Trace of Precipitation, MM = Missing Value Source: NWS Daily Summary

Daily Weather History Graph

Daily Weather History Graph

Search for Another Location

Airport or City:

Trip Planner

Search our weather history database for the weather conditions in past years. The results will help you decide how hot, cold, wet, or windy it might be!

Date:

Astronomy

Apr. 10, 2013 Rise Set
Actual Time 6:44 AM CDT 8:02 PM CDT
Civil Twilight 6:13 AM CDT 8:33 PM CDT
Nautical Twilight 5:36 AM CDT 9:10 PM CDT
Astronomical Twilight 4:56 AM CDT 9:50 PM CDT
Moon 6:39 AM CDT (4/10) 8:42 PM CDT (4/10)
Length of Visible Light 14h 19m
Length of Day
13h 18m
New Moon, 0% of the Moon is Illuminated
Apr 10
New Moon
Apr 18
First Quarter
Apr 25
Full
May 2
Last Quarter
May 9
New

Hourly Weather History & Observations

Time (CDT) Temp. Windchill Dew Point Humidity Pressure Visibility Wind Dir Wind Speed Gust Speed Precip Events Conditions
12:53 AM 30.9 °F 20.2 °F 19.9 °F 64% 30.25 in 10.0 mi NE 15.0 mph - N/A   Overcast
1:53 AM 30.9 °F 19.8 °F 19.9 °F 64% 30.23 in 10.0 mi NNE 16.1 mph - N/A   Overcast
2:53 AM 30.0 °F 19.1 °F 19.0 °F 64% 30.24 in 10.0 mi NNE 15.0 mph - N/A   Overcast
3:53 AM 28.9 °F 18.2 °F 18.0 °F 64% 30.19 in 10.0 mi NNE 13.8 mph - N/A   Mostly Cloudy
4:53 AM 28.9 °F 16.9 °F 17.1 °F 61% 30.17 in 10.0 mi NE 17.3 mph 24.2 mph N/A   Overcast
5:53 AM 28.9 °F 17.3 °F 17.1 °F 61% 30.14 in 10.0 mi NE 16.1 mph 21.9 mph N/A   Mostly Cloudy
6:53 AM 30.0 °F 20.5 °F 17.1 °F 59% 30.18 in 10.0 mi NE 11.5 mph - N/A   Overcast
7:53 AM 30.0 °F 21.1 °F 17.1 °F 59% 30.20 in 10.0 mi NNE 10.4 mph - N/A   Overcast
8:53 AM 30.9 °F 20.7 °F 17.1 °F 57% 30.17 in 10.0 mi NNE 13.8 mph - N/A   Overcast
9:53 AM 30.9 °F 21.7 °F 17.1 °F 57% 30.21 in 10.0 mi NNE 11.5 mph - N/A   Overcast
10:53 AM 30.0 °F 20.5 °F 17.1 °F 59% 30.18 in 10.0 mi NNE 11.5 mph - N/A   Overcast
11:53 AM 32.0 °F 22.1 °F 18.0 °F 56% 30.16 in 10.0 mi NE 13.8 mph - N/A   Overcast
12:53 PM 34.0 °F 23.8 °F 18.0 °F 52% 30.16 in 10.0 mi ENE 16.1 mph - N/A   Overcast
1:53 PM 35.1 °F 25.9 °F 18.0 °F 50% 30.17 in 10.0 mi ENE 13.8 mph - N/A   Overcast
2:53 PM 36.0 °F 26.3 °F 18.0 °F 48% 30.13 in 10.0 mi NE 16.1 mph - N/A   Overcast
3:53 PM 36.0 °F 27.5 °F 19.0 °F 50% 30.12 in 10.0 mi ENE 12.7 mph - N/A   Overcast
4:53 PM 37.0 °F 31.0 °F 18.0 °F 46% 30.12 in 10.0 mi ENE 8.1 mph 18.4 mph N/A   Overcast
5:53 PM 36.0 °F 28.0 °F 19.9 °F 52% 30.09 in 10.0 mi ENE 11.5 mph - N/A   Overcast
6:53 PM 36.0 °F 26.3 °F 14.0 °F 41% 30.05 in 10.0 mi East 16.1 mph - N/A   Overcast
7:53 PM 35.1 °F 25.2 °F 14.0 °F 42% 30.02 in 10.0 mi ENE 16.1 mph 21.9 mph N/A   Overcast
8:53 PM 35.1 °F 24.8 °F 15.1 °F 44% 29.98 in 10.0 mi ENE 17.3 mph 26.5 mph N/A   Overcast
9:53 PM 36.0 °F 26.3 °F 14.0 °F 41% 30.01 in 10.0 mi ENE 16.1 mph - N/A   Overcast
10:53 PM 35.1 °F 25.9 °F 14.0 °F 42% 30.04 in 10.0 mi East 13.8 mph - N/A   Overcast
11:53 PM 34.0 °F 24.2 °F 15.1 °F 46% 30.00 in 10.0 mi ENE 15.0 mph - N/A   Overcast